timestamp,surface_pressure_avg,surface_temp_avg,battery_voltage,lat,long
2023-10-06 00:09:00+00:00,228.5365,12.3,11.93,47.84626,-54.09684
2023-10-06 00:19:00+00:00,230.3081,12.3,11.93,47.84626,-54.09684
2023-10-06 00:29:00+00:00,229.1564,12.3,11.93,47.84626,-54.09684
2023-10-06 00:39:00+00:00,229.1265,12.3,11.93,47.84626,-54.09684
2023-10-06 00:49:00+00:00,233.0064,12.3,11.93,47.84626,-54.09684
2023-10-06 00:59:00+00:00,236.2631,12.3,11.93,47.84626,-54.09684
2023-10-06 01:09:00+00:00,240.5564,12.3,11.93,47.84626,-54.09684
2023-10-06 01:19:00+00:00,244.9248,12.29,11.93,47.84626,-54.09684
2023-10-06 01:29:00+00:00,248.3298,12.29,11.93,47.84626,-54.09684
2023-10-06 01:39:00+00:00,253.4247,12.29,11.93,47.84626,-54.09684
2023-10-06 01:49:00+00:00,260.8148,12.28,11.93,47.84626,-54.09684
2023-10-06 01:59:00+00:00,264.6014,12.28,11.93,47.84626,-54.09684
2023-10-06 02:09:00+00:00,267.4064,12.26,11.93,47.84626,-54.09684
2023-10-06 02:19:00+00:00,271.4281,12.2,11.93,47.84626,-54.09684
2023-10-06 02:29:00+00:00,276.4964,12.2,11.93,47.84626,-54.09684
2023-10-06 02:39:00+00:00,275.3331,12.18,11.93,47.84626,-54.09684
2023-10-06 02:49:00+00:00,274.2113,12.17,11.93,47.84626,-54.09684
2023-10-06 02:59:00+00:00,276.1797,12.2,11.93,47.84626,-54.09684
2023-10-06 03:09:00+00:00,281.3514,12.15,11.93,47.84626,-54.09684
2023-10-06 03:19:00+00:00,279.7264,12.15,11.93,47.84626,-54.09684
2023-10-06 03:29:00+00:00,278.1413,12.12,11.93,47.84626,-54.09684
2023-10-06 03:39:00+00:00,278.9231,12.1,11.93,47.84626,-54.09684
2023-10-06 03:49:00+00:00,280.4515,12.1,11.93,47.84626,-54.09684
2023-10-06 03:59:00+00:00,279.2897,12.1,11.93,47.84626,-54.09684
2023-10-06 04:09:00+00:00,281.3365,12.1,11.93,47.84626,-54.09684
2023-10-06 04:19:00+00:00,283.0081,12.1,11.93,47.84626,-54.09684
2023-10-06 04:29:00+00:00,282.8364,12.1,11.93,47.84626,-54.09684
2023-10-06 04:39:00+00:00,283.1747,12.1,11.93,47.84626,-54.09684
2023-10-06 04:49:00+00:00,286.363,12.1,11.93,47.84626,-54.09684
2023-10-06 04:59:00+00:00,290.5997,12.0,11.93,47.84626,-54.09684
2023-10-06 05:09:00+00:00,291.0515,12.0,11.93,47.84626,-54.09684
2023-10-06 05:19:00+00:00,290.33299999999997,12.0,11.93,47.84626,-54.09684
2023-10-06 05:29:00+00:00,290.1979,12.0,11.93,47.84626,-54.09684
2023-10-06 05:39:00+00:00,290.413,12.0,11.93,47.84626,-54.09684
2023-10-06 05:49:00+00:00,287.358,12.0,11.93,47.84626,-54.09684
2023-10-06 05:59:00+00:00,286.258,12.0,11.93,47.84626,-54.09684
2023-10-06 06:09:00+00:00,285.4731,12.0,11.93,47.84626,-54.09684
2023-10-06 06:19:00+00:00,279.4414,12.0,11.86,47.84626,-54.09684
2023-10-06 06:29:00+00:00,272.5864,12.0,11.86,47.84626,-54.09684
2023-10-06 06:39:00+00:00,273.0448,12.0,11.86,47.84626,-54.09684
2023-10-06 06:49:00+00:00,269.0081,12.0,11.86,47.84626,-54.09684
2023-10-06 06:59:00+00:00,257.2681,12.0,11.86,47.84626,-54.09684
2023-10-06 07:09:00+00:00,250.313,12.02,11.86,47.84626,-54.09684
2023-10-06 07:19:00+00:00,250.2797,12.03,11.86,47.84626,-54.09684
2023-10-06 07:29:00+00:00,244.2964,12.03,11.86,47.84626,-54.09684
2023-10-06 07:39:00+00:00,232.32299999999998,12.03,11.86,47.84626,-54.09684
2023-10-06 07:49:00+00:00,228.6997,12.05,11.86,47.84626,-54.09684
2023-10-06 07:59:00+00:00,228.6314,12.06,11.86,47.84626,-54.09684
2023-10-06 08:09:00+00:00,222.2381,12.05,11.86,47.84626,-54.09684
2023-10-06 08:19:00+00:00,216.0515,12.02,11.86,47.84626,-54.09684
2023-10-06 08:29:00+00:00,218.6431,12.02,11.86,47.84626,-54.09684
2023-10-06 08:39:00+00:00,214.9214,12.02,11.86,47.84626,-54.09684
2023-10-06 08:49:00+00:00,207.8981,12.02,11.86,47.84626,-54.09684
2023-10-06 08:59:00+00:00,207.6681,12.03,11.86,47.84626,-54.09684
2023-10-06 09:09:00+00:00,206.8148,12.03,11.86,47.84626,-54.09684
2023-10-06 09:19:00+00:00,203.0547,12.04,11.86,47.84626,-54.09684
2023-10-06 09:29:00+00:00,202.7914,12.04,11.86,47.84626,-54.09684
2023-10-06 09:39:00+00:00,205.6114,12.05,11.86,47.84626,-54.09684
2023-10-06 09:49:00+00:00,205.9448,12.06,11.86,47.84626,-54.09684
2023-10-06 09:59:00+00:00,204.4148,12.07,11.86,47.84626,-54.09684
2023-10-06 10:09:00+00:00,206.6298,12.06,11.86,47.84626,-54.09684
2023-10-06 10:19:00+00:00,211.9565,12.05,11.86,47.84626,-54.09684
2023-10-06 10:29:00+00:00,214.3581,12.06,11.86,47.84626,-54.09684
2023-10-06 10:39:00+00:00,213.0881,12.06,11.86,47.84626,-54.09684
2023-10-06 10:49:00+00:00,215.7581,12.05,11.86,47.84626,-54.09684
2023-10-06 10:59:00+00:00,218.9898,12.06,11.86,47.84626,-54.09684
2023-10-06 11:09:00+00:00,219.0298,12.05,11.86,47.84626,-54.09684
2023-10-06 11:19:01+00:00,222.2964,12.05,11.86,47.84626,-54.09684
2023-10-06 11:29:01+00:00,229.7381,12.04,11.86,47.84626,-54.09684
2023-10-06 11:39:01+00:00,232.9165,12.04,11.86,47.84626,-54.09684
2023-10-06 11:49:01+00:00,234.9281,12.01,11.86,47.84626,-54.09684
2023-10-06 11:59:01+00:00,238.5448,12.0,11.86,47.84626,-54.09684
2023-10-06 12:09:01+00:00,239.0247,12.0,11.86,47.84626,-54.09684
2023-10-06 12:19:00+00:00,240.643,12.03,11.86,47.84626,-54.09684
2023-10-06 12:29:00+00:00,242.8298,12.05,11.86,47.84626,-54.09684
2023-10-06 12:39:00+00:00,243.2363,12.03,11.86,47.84626,-54.09684
2023-10-06 12:49:00+00:00,245.5764,12.04,11.86,47.84626,-54.09684
2023-10-06 12:59:00+00:00,249.2264,12.06,11.86,47.84626,-54.09684
2023-10-06 13:09:00+00:00,250.0948,12.05,11.86,47.84626,-54.09684
2023-10-06 13:19:01+00:00,254.1331,12.02,11.86,47.84626,-54.09684
2023-10-06 13:29:01+00:00,260.5714,12.0,11.86,47.84626,-54.09684
2023-10-06 13:39:01+00:00,264.0464,12.02,11.86,47.84626,-54.09684
2023-10-06 13:49:01+00:00,263.7881,12.04,11.86,47.84626,-54.09684
2023-10-06 13:59:01+00:00,267.4831,12.04,11.86,47.84626,-54.09684
2023-10-06 14:09:01+00:00,271.4297,12.04,11.86,47.84626,-54.09684
2023-10-06 14:19:01+00:00,276.3148,12.04,11.86,47.84626,-54.09684
2023-10-06 14:29:01+00:00,283.6564,12.0,11.86,47.84626,-54.09684
2023-10-06 14:39:01+00:00,293.198,12.0,11.86,47.84626,-54.09684
2023-10-06 14:49:01+00:00,297.558,12.0,11.86,47.84626,-54.09684
2023-10-06 14:59:01+00:00,300.6497,12.03,11.86,47.84626,-54.09684
2023-10-06 15:09:01+00:00,307.1797,12.06,11.86,47.84626,-54.09684
2023-10-06 15:19:01+00:00,311.8763,12.0,11.93,47.84626,-54.09684
2023-10-06 15:29:01+00:00,308.6963,12.06,11.93,47.84626,-54.09684
2023-10-06 15:39:01+00:00,307.9597,12.1,11.93,47.84626,-54.09684
2023-10-06 15:49:01+00:00,311.5229,12.1,11.93,47.84626,-54.09684
2023-10-06 15:59:01+00:00,312.7046,12.1,11.93,47.84626,-54.09684
2023-10-06 16:09:01+00:00,310.9547,12.15,11.93,47.84626,-54.09684
2023-10-06 16:19:01+00:00,316.0612,12.19,12.09,47.84626,-54.09684
2023-10-06 16:29:01+00:00,316.0746,12.19,12.09,47.84626,-54.09684
2023-10-06 16:39:01+00:00,314.1697,12.2,12.09,47.84626,-54.09684
2023-10-06 16:49:01+00:00,319.438,12.2,12.09,47.84626,-54.09684
2023-10-06 16:59:01+00:00,324.3814,12.2,12.09,47.84626,-54.09684
2023-10-06 17:09:01+00:00,320.4263,12.1,12.09,47.84626,-54.09684
2023-10-06 17:19:01+00:00,319.403,12.08,12.09,47.84626,-54.09684
2023-10-06 17:29:01+00:00,324.0447,12.07,12.09,47.84626,-54.09684
2023-10-06 17:39:01+00:00,322.8763,12.09,12.09,47.84626,-54.09684
2023-10-06 17:49:01+00:00,318.3347,12.1,12.09,47.84626,-54.09684
2023-10-06 17:59:01+00:00,324.3997,12.1,12.09,47.84626,-54.09684
2023-10-06 18:09:01+00:00,327.968,12.09,12.09,47.84626,-54.09684
2023-10-06 18:19:00+00:00,322.3463,12.1,12.01,47.84626,-54.09684
2023-10-06 18:29:00+00:00,318.9398,12.0,12.01,47.84626,-54.09684
2023-10-06 18:39:00+00:00,321.2646,12.0,12.01,47.84626,-54.09684
2023-10-06 18:49:00+00:00,314.4464,12.02,12.01,47.84626,-54.09684
2023-10-06 18:59:00+00:00,305.5281,12.05,12.01,47.84626,-54.09684
2023-10-06 19:09:00+00:00,304.113,12.05,12.01,47.84626,-54.09684
2023-10-06 19:19:01+00:00,298.5064,12.07,11.93,47.84626,-54.09684
2023-10-06 19:29:01+00:00,285.6481,12.06,11.93,47.84626,-54.09684
2023-10-06 19:39:01+00:00,281.7129,12.04,11.93,47.84626,-54.09684
2023-10-06 19:49:01+00:00,279.553,12.05,11.93,47.84626,-54.09684
2023-10-06 19:59:01+00:00,272.043,12.06,11.93,47.84626,-54.09684
2023-10-06 20:09:01+00:00,266.5581,12.08,11.93,47.84626,-54.09684
2023-10-06 20:19:01+00:00,266.8931,12.07,11.93,47.84626,-54.09684
2023-10-06 20:29:01+00:00,261.4147,12.07,11.93,47.84626,-54.09684
2023-10-06 20:39:01+00:00,252.3214,12.03,11.93,47.84626,-54.09684
2023-10-06 20:49:01+00:00,249.4148,12.0,11.93,47.84626,-54.09684
2023-10-06 20:59:01+00:00,248.7213,12.0,11.93,47.84626,-54.09684
2023-10-06 21:09:01+00:00,243.3647,12.0,11.93,47.84626,-54.09684
2023-10-06 21:19:00+00:00,241.7697,12.0,11.86,47.84626,-54.09684
2023-10-06 21:29:00+00:00,241.3932,12.0,11.86,47.84626,-54.09684
2023-10-06 21:39:00+00:00,239.9198,12.0,11.86,47.84626,-54.09684
2023-10-06 21:49:00+00:00,236.3264,12.0,11.86,47.84626,-54.09684
2023-10-06 21:59:00+00:00,237.4748,12.0,11.86,47.84626,-54.09684
2023-10-06 22:09:00+00:00,240.4065,12.0,11.86,47.84626,-54.09684
2023-10-06 22:19:00+00:00,238.7381,12.0,11.86,47.84626,-54.09684
2023-10-06 22:29:00+00:00,234.8897,12.0,11.86,47.84626,-54.09684
2023-10-06 22:39:00+00:00,236.4814,12.0,11.86,47.84626,-54.09684
2023-10-06 22:49:00+00:00,238.7798,12.0,11.86,47.84626,-54.09684
2023-10-06 22:59:00+00:00,236.8047,12.0,11.86,47.84626,-54.09684
2023-10-06 23:09:00+00:00,238.3414,12.04,11.86,47.84626,-54.09684
2023-10-06 23:19:00+00:00,244.3331,12.05,11.86,47.84626,-54.09684
2023-10-06 23:29:00+00:00,245.4048,12.06,11.86,47.84626,-54.09684
2023-10-06 23:39:00+00:00,242.9748,12.07,11.86,47.84626,-54.09684
2023-10-06 23:49:00+00:00,244.6997,12.1,11.86,47.84626,-54.09684
2023-10-06 23:59:00+00:00,247.1681,12.1,11.86,47.84626,-54.09684
